Independence, KS

8:01 PM CDT on April 21, 2018 (GMT -0500)
Independence Municipal

Weather History for KIDP - December, 2013

Change the Weather History Date:

Thursday, December 19, 2013

  Actual Average (KCFV) Record (KCFV)
Temperature  
Mean Temperature 54 °F -  
Max Temperature 59 °F 43 °F 64 °F (1997)
Min Temperature 50 °F 22 °F 5 °F (2000)
Degree Days  
Heating Degree Days 10    
Growing Degree Days 4 (Base 50)    
Moisture  
Dew Point 47 °F    
Average Humidity 77    
Maximum Humidity 94    
Minimum Humidity 58    
Precipitation  
Precipitation 0.00 in - - ()
Sea Level Pressure  
Sea Level Pressure 29.72 in    
Wind  
Wind Speed 16 mph (South)    
Max Wind Speed 26 mph    
Max Gust Speed 31 mph    
Visibility 10 miles    
Events      
Averages and records for this station are not official NWS values.
T = Trace of Precipitation, MM = Missing Value Source: NWS Daily Summary

Daily Weather History Graph

Daily Weather History Graph

Search for Another Location

Airport or City:

Astronomy

Dec. 19, 2013 Rise Set
Actual Time 7:32 AM CST 5:08 PM CST
Civil Twilight 7:03 AM CST 5:37 PM CST
Nautical Twilight 6:30 AM CST 6:10 PM CST
Astronomical Twilight 5:58 AM CST 6:42 PM CST
Moon 7:32 PM CST (12/19) 8:54 AM CST (12/19)
Length of Visible Light 10h 34m
Length of Day
9h 36m
Waning Gibbous, 95% of the Moon is Illuminated
Dec 19
Waning Gibbous
Dec 25
Last Quarter
Jan 1
New
Jan 7
First Quarter
Jan 15
Full

Hourly Weather History & Observations

Time (CST) Temp. Dew Point Humidity Pressure Visibility Wind Dir Wind Speed Gust Speed Precip Events Conditions
12:15 AM 51.8 °F 37.4 °F 58% 29.86 in 10.0 mi South 15.0 mph - N/A   Clear
12:35 AM 51.8 °F 39.2 °F 62% 29.85 in 10.0 mi South 15.0 mph - N/A   Clear
12:55 AM 51.8 °F 41.0 °F 67% 29.84 in 10.0 mi South 17.3 mph - N/A   Clear
1:15 AM 50.0 °F 41.0 °F 71% 29.83 in 10.0 mi South 16.1 mph 21.9 mph N/A   Clear
1:35 AM 50.0 °F 41.0 °F 71% 29.82 in 10.0 mi South 15.0 mph - N/A   Clear
1:55 AM 50.0 °F 41.0 °F 71% 29.82 in 10.0 mi South 13.8 mph - N/A   Clear
2:15 AM 50.0 °F 41.0 °F 71% 29.82 in 10.0 mi South 13.8 mph - N/A   Clear
2:35 AM 50.0 °F 41.0 °F 71% 29.81 in 10.0 mi South 12.7 mph 18.4 mph N/A   Clear
2:55 AM 50.0 °F 41.0 °F 71% 29.80 in 10.0 mi South 17.3 mph 20.7 mph N/A   Clear
3:15 AM 50.0 °F 41.0 °F 71% 29.80 in 10.0 mi South 15.0 mph - N/A   Clear
3:35 AM 50.0 °F 41.0 °F 71% 29.80 in 10.0 mi South 16.1 mph 20.7 mph N/A   Clear
3:55 AM 50.0 °F 41.0 °F 71% 29.79 in 10.0 mi South 18.4 mph - N/A   Clear
4:15 AM 50.0 °F 41.0 °F 71% 29.78 in 10.0 mi South 17.3 mph 21.9 mph N/A   Clear
4:35 AM 50.0 °F 42.8 °F 76% 29.78 in 10.0 mi South 18.4 mph - N/A   Clear
4:55 AM 50.0 °F 42.8 °F 76% 29.77 in 10.0 mi South 17.3 mph 21.9 mph N/A   Clear
5:15 AM 50.0 °F 42.8 °F 76% 29.76 in 10.0 mi South 19.6 mph 26.5 mph N/A   Clear
5:35 AM 50.0 °F 42.8 °F 76% 29.76 in 10.0 mi South 20.7 mph 25.3 mph N/A   Clear
5:55 AM 50.0 °F 42.8 °F 76% 29.75 in 10.0 mi South 20.7 mph 28.8 mph N/A   Clear
6:15 AM 50.0 °F 42.8 °F 76% 29.75 in 10.0 mi South 21.9 mph 26.5 mph N/A   Clear
6:35 AM 50.0 °F 42.8 °F 76% 29.74 in 10.0 mi South 20.7 mph 26.5 mph N/A   Clear
6:55 AM 50.0 °F 42.8 °F 76% 29.74 in 10.0 mi South 20.7 mph 28.8 mph N/A   Clear
7:15 AM 50.0 °F 42.8 °F 76% 29.74 in 10.0 mi South 21.9 mph 27.6 mph N/A   Clear
7:35 AM 50.0 °F 44.6 °F 82% 29.74 in 10.0 mi South 18.4 mph 24.2 mph N/A   Clear
7:55 AM 50.0 °F 44.6 °F 82% 29.75 in 10.0 mi South 18.4 mph 26.5 mph N/A   Clear
8:15 AM 50.0 °F 44.6 °F 82% 29.75 in 10.0 mi South 20.7 mph 26.5 mph N/A   Clear
8:35 AM 50.0 °F 44.6 °F 82% 29.75 in 10.0 mi South 19.6 mph - N/A   Clear
8:55 AM 51.8 °F 46.4 °F 82% 29.76 in 10.0 mi South 17.3 mph 26.5 mph N/A   Scattered Clouds
9:15 AM 51.8 °F 46.4 °F 82% 29.76 in 10.0 mi South 17.3 mph - N/A   Mostly Cloudy
9:35 AM 53.6 °F 46.4 °F 77% 29.76 in 10.0 mi South 20.7 mph - N/A   Overcast
9:55 AM 53.6 °F 48.2 °F 82% 29.77 in 10.0 mi South 17.3 mph 23.0 mph N/A   Overcast
10:35 AM 55.4 °F 50.0 °F 82% 29.78 in 10.0 mi South 15.0 mph - N/A   Overcast
10:55 AM 57.2 °F 50.0 °F 77% 29.78 in 10.0 mi South 16.1 mph 20.7 mph N/A   Overcast
11:15 AM 57.2 °F 50.0 °F 77% 29.76 in 10.0 mi South 19.6 mph 25.3 mph N/A   Overcast
11:35 AM 59.0 °F 50.0 °F 72% 29.74 in 10.0 mi South 18.4 mph 25.3 mph N/A   Overcast
11:55 AM 59.0 °F 50.0 °F 72% 29.73 in 10.0 mi South 21.9 mph 27.6 mph N/A   Overcast
12:15 PM 59.0 °F 50.0 °F 72% 29.71 in 10.0 mi South 24.2 mph 28.8 mph N/A   Overcast
12:35 PM 59.0 °F 50.0 °F 72% 29.70 in 10.0 mi South 17.3 mph 29.9 mph N/A   Overcast
12:55 PM 59.0 °F 50.0 °F 72% 29.69 in 10.0 mi South 26.5 mph 31.1 mph N/A   Overcast
1:15 PM 59.0 °F 50.0 °F 72% 29.68 in 10.0 mi South 18.4 mph 31.1 mph N/A   Overcast
1:35 PM 59.0 °F 50.0 °F 72% 29.66 in 10.0 mi South 20.7 mph 25.3 mph N/A   Overcast
1:55 PM 59.0 °F 50.0 °F 72% 29.66 in 10.0 mi South 20.7 mph 29.9 mph N/A   Overcast
2:15 PM 59.0 °F 50.0 °F 72% 29.65 in 10.0 mi South 20.7 mph 27.6 mph N/A   Overcast
2:35 PM 59.0 °F 50.0 °F 72% 29.66 in 10.0 mi South 21.9 mph 26.5 mph N/A   Overcast
2:55 PM 59.0 °F 50.0 °F 72% 29.66 in 10.0 mi South 18.4 mph 25.3 mph N/A   Overcast
3:15 PM 59.0 °F 50.0 °F 72% 29.65 in 10.0 mi South 17.3 mph 21.9 mph N/A   Overcast
3:35 PM 59.0 °F 50.0 °F 72% 29.65 in 10.0 mi South 13.8 mph - N/A   Overcast
3:55 PM 59.0 °F 50.0 °F 72% 29.65 in 10.0 mi South 16.1 mph 23.0 mph N/A   Overcast
4:15 PM 59.0 °F 50.0 °F 72% 29.66 in 10.0 mi South 16.1 mph - N/A   Overcast
4:35 PM 59.0 °F 50.0 °F 72% 29.66 in 10.0 mi South 12.7 mph - N/A   Overcast
4:55 PM 59.0 °F 50.0 °F 72% 29.66 in 10.0 mi South 12.7 mph - N/A   Overcast
5:15 PM 59.0 °F 50.0 °F 72% 29.66 in 10.0 mi South 11.5 mph - N/A   Overcast
5:35 PM 57.2 °F 50.0 °F 77% 29.66 in 10.0 mi SSE 9.2 mph - N/A   Overcast
5:55 PM 57.2 °F 50.0 °F 77% 29.66 in 10.0 mi South 8.1 mph - N/A   Overcast
6:15 PM 57.2 °F 50.0 °F 77% 29.66 in 10.0 mi South 8.1 mph - N/A   Overcast
6:35 PM 57.2 °F 50.0 °F 77% 29.67 in 10.0 mi South 8.1 mph - N/A   Overcast
6:55 PM 57.2 °F 50.0 °F 77% 29.67 in 10.0 mi South 9.2 mph - N/A   Overcast
7:15 PM 57.2 °F 50.0 °F 77% 29.65 in 10.0 mi South 13.8 mph 19.6 mph N/A   Overcast
7:35 PM 57.2 °F 51.8 °F 82% 29.66 in 10.0 mi South 15.0 mph - N/A   Mostly Cloudy
7:55 PM 57.2 °F 51.8 °F 82% 29.65 in 10.0 mi South 15.0 mph - N/A   Scattered Clouds
8:15 PM 57.2 °F 51.8 °F 82% 29.66 in 10.0 mi South 13.8 mph 18.4 mph N/A   Clear
8:35 PM 55.4 °F 51.8 °F 88% 29.66 in 10.0 mi South 13.8 mph - N/A   Clear
8:55 PM 55.4 °F 51.8 °F 88% 29.66 in 10.0 mi South 12.7 mph - N/A   Clear
9:15 PM 53.6 °F 50.0 °F 88% 29.66 in 10.0 mi SSE 9.2 mph - N/A   Clear
9:35 PM 53.6 °F 50.0 °F 88% 29.67 in 10.0 mi South 8.1 mph - N/A   Clear
9:55 PM 53.6 °F 50.0 °F 88% 29.66 in 10.0 mi SSE 6.9 mph - N/A   Clear
10:15 PM 53.6 °F 50.0 °F 88% 29.66 in 10.0 mi South 6.9 mph - N/A   Clear
10:35 PM 53.6 °F 51.8 °F 94% 29.66 in 10.0 mi South 8.1 mph - N/A   Clear
10:55 PM 53.6 °F 51.8 °F 94% 29.66 in 10.0 mi South 10.4 mph - N/A   Clear
11:15 PM 55.4 °F 51.8 °F 88% 29.66 in 10.0 mi South 11.5 mph - N/A   Clear
11:35 PM 53.6 °F 51.8 °F 94% 29.65 in 10.0 mi South 9.2 mph - N/A   Clear
11:55 PM 53.6 °F 51.8 °F 94% 29.65 in 10.0 mi SSE 8.1 mph - N/A   Clear